Westhampton Beach, NY

12:23 PM EDT on April 30, 2017 (GMT -0400)
The Gabreski

Weather History for KFOK - June, 2014

Change the Weather History Date:

Wednesday, June 18, 2014

  Actual Average Record
Temperature  
Mean Temperature 77 °F -  
Max Temperature 88 °F 73 °F 88 °F (2014)
Min Temperature 64 °F 56 °F 46 °F (2002)
Cooling Degree Days 12    
Growing Degree Days 27 (Base 50)    
Moisture  
Dew Point 64 °F    
Average Humidity 63    
Maximum Humidity 87    
Minimum Humidity 41    
Precipitation  
Precipitation 0.00 in - - ()
Sea Level Pressure  
Sea Level Pressure 29.90 in    
Wind  
Wind Speed 9 mph (WNW)    
Max Wind Speed 17 mph    
Max Gust Speed 25 mph    
Visibility 9 miles    
Events      
Averages and records for this station are not official NWS values.
T = Trace of Precipitation, MM = Missing Value Source: NWS Daily Summary

Daily Weather History Graph

Daily Weather History Graph

Search for Another Location

Airport or City:

Trip Planner

Search our weather history database for the weather conditions in past years. The results will help you decide how hot, cold, wet, or windy it might be!

Date:

Astronomy

Jun. 18, 2014 Rise Set
Actual Time 5:18 AM EDT 8:24 PM EDT
Civil Twilight 4:45 AM EDT 8:58 PM EDT
Nautical Twilight 4:02 AM EDT 9:41 PM EDT
Astronomical Twilight 3:11 AM EDT 10:31 PM EDT
Moon No Moon Rise 11:40 AM EDT (6/18)
Length of Visible Light 16h 13m
Length of Day
15h 06m
Waning Gibbous, 63% of the Moon is Illuminated
Jun 18
Waning Gibbous
Jun 19
Last Quarter
Jun 27
New
Jul 5
First Quarter
Jul 12
Full

Hourly Weather History & Observations

Time (EDT) Temp. Heat Index Dew Point Humidity Pressure Visibility Wind Dir Wind Speed Gust Speed Precip Events Conditions
12:53 AM 70.0 °F - 64.9 °F 84% 29.91 in 7.0 mi SW 6.9 mph - N/A   Clear
1:53 AM 69.1 °F - 64.9 °F 87% 29.89 in 6.0 mi SW 6.9 mph - N/A   Clear
2:53 AM 69.1 °F - 64.9 °F 87% 29.88 in 6.0 mi SW 9.2 mph - N/A   Partly Cloudy
3:53 AM 70.0 °F - 66.0 °F 87% 29.86 in 6.0 mi SW 9.2 mph - N/A   Clear
4:53 AM 70.0 °F - 64.9 °F 84% 29.83 in 7.0 mi SW 6.9 mph 17.3 mph N/A   Clear
6:53 AM 73.0 °F - 68.0 °F 84% 29.83 in 6.0 mi WSW 10.4 mph - N/A   Haze
7:53 AM 75.9 °F - 69.1 °F 79% 29.84 in 7.0 mi SSW 6.9 mph - N/A   Clear
8:53 AM 82.0 °F 85.9 °F 70.0 °F 67% 29.83 in 9.0 mi SSW 8.1 mph - N/A   Clear
9:53 AM 84.0 °F 85.8 °F 64.9 °F 53% 29.84 in 10.0 mi WNW 10.4 mph 25.3 mph N/A   Mostly Cloudy
10:53 AM 84.0 °F 85.8 °F 64.9 °F 53% 29.86 in 10.0 mi NW 15.0 mph 21.9 mph N/A   Mostly Cloudy
11:53 AM 84.0 °F 85.4 °F 64.0 °F 51% 29.87 in 10.0 mi NNW 15.0 mph - N/A   Mostly Cloudy
12:53 PM 87.1 °F 87.8 °F 63.0 °F 44% 29.89 in 10.0 mi WNW 17.3 mph - N/A   Mostly Cloudy
1:53 PM 87.1 °F 87.5 °F 62.1 °F 43% 29.89 in 10.0 mi NW 16.1 mph 24.2 mph N/A   Partly Cloudy
2:53 PM 88.0 °F 88.4 °F 62.1 °F 42% 29.90 in 10.0 mi NW 16.1 mph 21.9 mph N/A   Clear
3:53 PM 88.0 °F 88.4 °F 62.1 °F 42% 29.90 in 10.0 mi NNW 11.5 mph - N/A   Scattered Clouds
4:53 PM 87.1 °F 87.0 °F 61.0 °F 41% 29.92 in 10.0 mi NW 13.8 mph - N/A   Clear
5:53 PM 84.9 °F 85.0 °F 61.0 °F 44% 29.91 in 10.0 mi WNW 8.1 mph - N/A   Clear
6:53 PM 84.0 °F 84.4 °F 61.0 °F 46% 29.93 in 10.0 mi WNW 5.8 mph - N/A   Clear
7:53 PM 81.0 °F 82.2 °F 63.0 °F 54% 29.95 in 10.0 mi NW 4.6 mph - N/A   Clear
8:53 PM 75.9 °F - 62.1 °F 62% 29.97 in 10.0 mi North 4.6 mph - N/A   Clear
9:53 PM 73.0 °F - 61.0 °F 66% 29.97 in 10.0 mi North 5.8 mph - N/A   Clear
10:53 PM 66.9 °F - 59.0 °F 76% 29.98 in 10.0 mi Calm Calm - N/A   Clear
11:53 PM 64.0 °F - 57.9 °F 80% 29.97 in 10.0 mi Calm Calm - N/A   Clear